This is the latest recevied weather packets stored in our database for station/object IW4DZV-13. If no packets are shown the sender has not sent any weather packets the latest 10 day(s).
| Time | Temp. | Humidity | Pressure | Rain* | Wind** | Luminosity | Snow |
|---|---|---|---|---|---|---|---|
| 1777576564 | 12.78° C | 48% | 1024.1 hPa | 0.51 mm | - | 0 W/m² | - |
| 1777575604 | 12.78° C | 46% | 1023.9 hPa | 0.51 mm | - | 0 W/m² | - |
| 1777574703 | 13.33° C | 45% | 1023.8 hPa | 0.51 mm | - | 0 W/m² | - |
| 1777573805 | 13.89° C | 44% | 1023.7 hPa | 0.51 mm | - | 0 W/m² | - |
| 1777572904 | 13.89° C | 42% | 1023.4 hPa | 0.51 mm | - | 5 W/m² | - |
| 1777572001 | 14.44° C | 40% | 1023.3 hPa | 0.51 mm | - | 11 W/m² | - |
| 1777571101 | 15° C | 40% | 1023.2 hPa | 0.51 mm | - | 16 W/m² | - |
| 1777570201 | 15° C | 36% | 1023.2 hPa | 0.51 mm | - | 19 W/m² | - |
| 1777569365 | 15° C | 37% | 1022.9 hPa | 0.51 mm | - | 23 W/m² | - |
| 1777568459 | 15.56° C | 37% | 1022.9 hPa | 0.51 mm | - | 26 W/m² | - |
| 1777567560 | 15.56° C | 35% | 1022.9 hPa | 0.51 mm | - | 28 W/m² | - |
| 1777566687 | 16.11° C | 35% | 1022.7 hPa | 0.51 mm | - | 30 W/m² | - |
| 1777565757 | 16.67° C | 34% | 1022.6 hPa | 0.51 mm | - | 33 W/m² | - |
| 1777564858 | 17.22° C | 34% | 1022.4 hPa | 0.51 mm | - | 332 W/m² | - |
| 1777563958 | 17.78° C | 34% | 1022.5 hPa | 0.51 mm | - | 376 W/m² | - |
| 1777563057 | 17.78° C | 29% | 1022.5 hPa | 0.51 mm | - | 422 W/m² | - |
| 1777562162 | 17.22° C | 35% | 1022.6 hPa | 0.51 mm | - | 151 W/m² | - |
| 1777561263 | 17.22° C | 34% | 1022.5 hPa | 0.51 mm | - | 100 W/m² | - |
| 1777560363 | 17.22° C | 34% | 1022.6 hPa | 0.51 mm | - | 44 W/m² | - |
| 1777559455 | 16.67° C | 34% | 1022.7 hPa | 0.51 mm | - | 53 W/m² | - |
| 1777558555 | 16.67° C | 31% | 1022.7 hPa | 0.51 mm | - | 46 W/m² | - |
| 1777557654 | 17.22° C | 32% | 1022.7 hPa | 0.51 mm | - | 130 W/m² | - |
| 1777556754 | 17.22° C | 31% | 1022.9 hPa | 0.51 mm | - | 223 W/m² | - |
| 1777555866 | 17.78° C | 32% | 1023 hPa | 0.51 mm | - | 67 W/m² | - |
| 1777554954 | 18.33° C | 31% | 1023.1 hPa | 0.51 mm | - | 752 W/m² | - |
* Rain since midnight (hover to see other rain measurements)
** Current wind speed in m/s (hover to see current wind gust speed)